Location: L�Ave Maria
(50.7161°N, 1.5911°E)
Time: 22:11:50
(UTC+00:00)

USA 267 - Pass Details

Date: 10 July 2020
Orbit: 1102 x 1106 km, 123.0° (Epoch: 12 August)

Event Time Altitude Azimuth Distance (km) Brightness Sun altitude
Exits shadow 23:12:05 20° 142° (SE) 2,300 4.4 -16.5°
Maximum altitude 23:16:45 62° 218° (SW) 1,225 3.3 -16.6°
Drops below altitude 10° 23:23:14 10° 299° (WNW) 2,966 6.0 -16.8°
Sets 23:25:46 0° 303° (WNW) 3,927 6.8 -16.8°
